Content
SEND FEEDBACK

Daily
Averages
Monthly
Summary
Mexico

CANCUN, QUINTANA ROO


Home > North America > Mexico > Quintana Roo
Elevation: 9 meters     Latitude: 21 09N     Longitude: 086 49W

WEATHER
 
SELECT A DAY
Number of Records: 165,801;   Date Range: 1/1/95 - 9/28/14
 
SHARE

PRINT THIS DATA

[ ← Previous Day ]
WEATHER ALMANAC - 14 JANUARY, 2013
[ Next Day → ]
[ °F ]   °C
Weather ElementAverageHighLow
Temperature25.7 °C29 °C (11:45 am)23 °C (1:44 am)
Dewpoint22 °C23 °C (1:41 pm)21 °C (1:44 am)
Humidity80.3 %89 % (5:42 pm)66 % (11:45 am)
Barometer978.3 hPa1017.9 hPa (8:43 am) (7:00 pm)
Wind Speed16.4 km/h25.9 km/h (11:45 am)
Weather ElementAverage
Visibility11.1 km
Wind DirectionESE (119.2 °)

Weather ElementTotal
Precipitation---
Cooling Degree Days7.7 (Base 18.3)
Growing Degree Days16 (Base 10)
Averaged from 24 records on 14 January, 2013
WEATHER CONDITIONS BREAKOUT
WIND DIRECTION BREAKOUT
WEATHER BY HOUR - 14 JANUARY, 2013
[ °F ]   °C
Local TimeTemperatureDewpointHumidityBarometerVisibilityWind DirectionWind SpeedGust SpeedPrecipitationEventsConditions
1:44 AM23 °C21 °C88 %1015.6 hPa11.3 kmESE (110°)18.5 km/hClear
2:46 AM23 °C21 °C88 %1014.6 hPa11.3 kmESE (120°)13 km/hPartly Cloudy
3:45 AM23 °C21 °C88 %1015.2 hPa11.3 kmSE (130°)16.7 km/hScattered Clouds
4:44 AM23 °C21 °C88 %1015.6 hPa11.3 kmEast (100°)9.3 km/hScattered Clouds
5:43 AM23 °C21 °C88 %1015.2 hPa11.3 kmSE (130°)13 km/hScattered Clouds
6:42 AM25 °C22 °C83 %1016.6 hPa11.3 kmSE (130°)11.1 km/hScattered Clouds
7:43 AM26 °C22 °C78 %1017.3 hPa11.3 kmESE (120°)11.1 km/hScattered Clouds
8:43 AM27 °C22 °C74 %1017.9 hPa11.3 kmESE (110°)18.5 km/hScattered Clouds
9:41 AM28 °C22 °C70 %1017.9 hPa11.3 kmESE (120°)24.1 km/hScattered Clouds
10:41 AM28 °C22 °C70 %1017.3 hPa11.3 kmSE (130°)24.1 km/hMostly Cloudy
11:45 AM29 °C22 °C66 %1016.6 hPa11.3 kmSE (140°)25.9 km/hMostly Cloudy
12:44 PM29 °C22 °C66 %1015.9 hPa11.3 kmSE (130°)25.9 km/hMostly Cloudy
1:41 PM28 °C23 °C74 %1015.6 hPa11.3 kmSE (130°)22.2 km/hMostly Cloudy
2:42 PM27 °C23 °C79 %1015.6 hPa11.3 kmSE (130°)20.4 km/hMostly Cloudy
3:02 PM26 °C23 °C83 %9.7 kmSE (130°)22.2 km/hRainLight Rain
3:42 PM26 °C22 °C78 %1016.3 hPa11.3 kmSE (130°)16.7 km/hMostly Cloudy
4:43 PM27 °C22 °C74 %1016.6 hPa11.3 kmEast (100°)9.3 km/hScattered Clouds
5:42 PM25 °C23 °C89 %1016.9 hPa9.7 kmESE (110°)11.1 km/hMostly Cloudy
6:45 PM25 °C23 °C89 %1017.3 hPa11.3 kmESE (110°)13 km/hMostly Cloudy
7:44 PM25 °C22 °C83 %1017.3 hPa11.3 kmESE (120°)13 km/hMostly Cloudy
8:48 PM25 °C22 °C83 %1017.6 hPa11.3 kmESE (110°)16.7 km/hScattered Clouds
9:47 PM25 °C22 °C83 %1017.3 hPa11.3 kmEast (100°)9.3 km/hPartly Cloudy
10:44 PM25 °C22 °C83 %1016.9 hPa11.3 kmESE (110°)13 km/hScattered Clouds
11:48 PM25 °C22 °C83 %1016.9 hPa11.3 kmESE (110°)14.8 km/hScattered Clouds
Hourly data recorded from MMUN, located 0 kilometers away from Cancun, Quintana Roo







STORIES FROM OUR PARTNERS